,,PA_Meas_PMT16A,,PR_Meas_QMR101_102,,RH_Meas_QMH101,,SR_Meas_QMS101,,TA_Meas_QMH101,,GenWind,,GenWind,
time,status,PA,status,PR,status,RH,status,SR,status,TA,status,DirAvg,status,SpdAvg,
2011-04-14, 00:00:04,VALID,918.301,VALID,0,VALID,93.9281,VALID,0,VALID,20.3823,VALID,120,VALID,0.638281,
2011-04-14, 00:01:04,VALID,918.276,VALID,0,VALID,94.0348,VALID,0,VALID,20.4033,VALID,120,VALID,0.306641,
2011-04-14, 00:02:04,VALID,918.262,VALID,0,VALID,94.0577,VALID,0,VALID,20.4228,VALID,120,VALID,0.25625,
2011-04-14, 00:03:04,VALID,918.237,VALID,0,VALID,94.0653,VALID,0,VALID,20.4423,VALID,120,VALID,0.148828,
2011-04-14, 00:04:04,VALID,918.214,VALID,0,VALID,93.9281,VALID,0,VALID,20.4618,VALID,120,VALID,0.285937,
2011-04-14, 00:05:04,VALID,918.218,VALID,0,VALID,93.768,VALID,0,VALID,20.5009,VALID,120,VALID,0.162891,
2011-04-14, 00:06:04,VALID,918.182,VALID,0,VALID,93.6079,VALID,0,VALID,20.5204,VALID,120,VALID,0.4125,
2011-04-14, 00:07:04,VALID,918.169,VALID,0,VALID,93.3945,VALID,0,VALID,20.5609,VALID,120,VALID,0.202344,
2011-04-14, 00:08:04,VALID,918.154,VALID,0,VALID,93.1429,VALID,0,VALID,20.5789,VALID,120,VALID,0.283984,
2011-04-14, 00:09:04,VALID,918.174,VALID,0,VALID,92.9447,VALID,0,VALID,20.6194,VALID,120,VALID,0,
2011-04-14, 00:10:04,VALID,918.137,VALID,0,VALID,92.7998,VALID,0,VALID,20.678,VALID,120,VALID,0,
2011-04-14, 00:11:04,VALID,918.102,VALID,0,VALID,92.533,VALID,0,VALID,20.6569,VALID,120,VALID,0.362891,
2011-04-14, 00:12:04,VALID,918.113,VALID,0,VALID,92.2891,VALID,0,VALID,20.678,VALID,120,VALID,0.566016,
2011-04-14, 00:13:04,VALID,918.057,VALID,0,VALID,92.1442,VALID,0,VALID,20.6374,VALID,120,VALID,0.741406,
2011-04-14, 00:14:04,VALID,918.03,VALID,0,VALID,92.2205,VALID,0,VALID,20.5984,VALID,120,VALID,0.680859,
2011-04-14, 00:15:04,VALID,918.003,VALID,0,VALID,92.3119,VALID,0,VALID,20.5999,VALID,120,VALID,0.581641,
2011-04-14, 00:16:04,VALID,917.996,VALID,0,VALID,92.4263,VALID,0,VALID,20.5999,VALID,120,VALID,0.565625,
2011-04-14, 00:17:04,VALID,918.01,VALID,0,VALID,92.5635,VALID,0,VALID,20.5399,VALID,120,VALID,0.360938,
2011-04-14, 00:18:04,VALID,917.994,VALID,0,VALID,92.6169,VALID,0,VALID,20.5594,VALID,120,VALID,0.463281,
2011-04-14, 00:19:04,VALID,918.005,VALID,0,VALID,92.6855,VALID,0,VALID,20.5594,VALID,120,VALID,0.05625,
2011-04-14, 00:20:04,VALID,918.001,VALID,0,VALID,92.655,VALID,0,VALID,20.5804,VALID,120,VALID,0.328906,
2011-04-14, 00:21:04,VALID,918.035,VALID,0,VALID,92.594,VALID,0,VALID,20.5594,VALID,120,VALID,0.160938,
2011-04-14, 00:22:04,VALID,917.983,VALID,0,VALID,92.5864,VALID,0,VALID,20.5804,VALID,120,VALID,0.266797,
2011-04-14, 00:23:04,VALID,917.989,VALID,0,VALID,92.4797,VALID,0,VALID,20.5804,VALID,120,VALID,0.153125,
2011-04-14, 00:24:04,VALID,917.968,VALID,0,VALID,92.3501,VALID,0,VALID,20.5414,VALID,120,VALID,0.552734,
2011-04-14, 00:25:04,VALID,917.934,VALID,0,VALID,92.3577,VALID,0,VALID,20.4423,VALID,120,VALID,1.11016,
2011-04-14, 00:26:04,VALID,917.913,VALID,0,VALID,92.7312,VALID,0,VALID,20.3659,VALID,98,VALID,1.17852,
2011-04-14, 00:27:04,VALID,917.882,VALID,0,VALID,93.0438,VALID,0,VALID,20.2278,VALID,83,VALID,1.05,
2011-04-14, 00:28:04,VALID,917.86,VALID,0,VALID,93.6079,VALID,0,VALID,20.1498,VALID,83,VALID,1.14336,
2011-04-14, 00:29:04,VALID,917.838,VALID,0,VALID,94.1416,VALID,0,VALID,20.1123,VALID,83,VALID,1.07227,
2011-04-14, 00:30:04,VALID,917.787,VALID,0,VALID,94.6066,VALID,0,VALID,20.1123,VALID,83,VALID,0.944922,
2011-04-14, 00:31:04,VALID,917.763,VALID,0,VALID,94.6676,VALID,0,VALID,20.0718,VALID,83,VALID,0.821094,
2011-04-14, 00:32:04,VALID,917.731,VALID,0,VALID,94.5151,VALID,0,VALID,20.0538,VALID,83,VALID,0.997266,
2011-04-14, 00:33:04,VALID,917.683,VALID,0,VALID,94.7209,VALID,0,VALID,20.0538,VALID,84,VALID,1.15,
2011-04-14, 00:34:04,VALID,917.687,VALID,0,VALID,94.881,VALID,0,VALID,20.0343,VALID,84,VALID,0.758203,
2011-04-14, 00:35:04,VALID,917.641,VALID,0,VALID,94.9344,VALID,0,VALID,20.0133,VALID,89,VALID,0.672656,
2011-04-14, 00:36:04,VALID,917.617,VALID,0,VALID,95.0335,VALID,0,VALID,20.0133,VALID,105,VALID,0.54375,
2011-04-14, 00:37:04,VALID,917.612,VALID,0,VALID,95.125,VALID,0,VALID,20.0538,VALID,105,VALID,0.748828,
2011-04-14, 00:38:04,VALID,917.576,VALID,0,VALID,95.1479,VALID,0,VALID,20.0523,VALID,105,VALID,0.459766,
2011-04-14, 00:39:04,VALID,917.548,VALID,0,VALID,95.186,VALID,0,VALID,20.0523,VALID,105,VALID,0.485156,
2011-04-14, 00:40:04,VALID,917.495,VALID,0,VALID,95.1402,VALID,0,VALID,20.0538,VALID,105,VALID,0.560547,
2011-04-14, 00:41:04,VALID,917.481,VALID,0,VALID,95.125,VALID,0,VALID,20.0328,VALID,105,VALID,0.238672,
2011-04-14, 00:42:04,VALID,917.48,VALID,0,VALID,95.003,VALID,0,VALID,20.0328,VALID,105,VALID,0.836719,
2011-04-14, 00:43:04,VALID,917.435,VALID,0,VALID,94.881,VALID,0,VALID,20.0148,VALID,105,VALID,0.715625,
2011-04-14, 00:44:04,VALID,917.425,VALID,0,VALID,94.8048,VALID,0,VALID,19.9563,VALID,105,VALID,0.784375,
2011-04-14, 00:45:04,VALID,917.44,VALID,0,VALID,94.9496,VALID,0,VALID,19.9353,VALID,105,VALID,0.942187,
2011-04-14, 00:46:04,VALID,917.384,VALID,0,VALID,95.0792,VALID,0,VALID,19.9173,VALID,105,VALID,0.813672,
2011-04-14, 00:47:04,VALID,917.371,VALID,0,VALID,95.2393,VALID,0,VALID,19.9173,VALID,105,VALID,0.678125,
2011-04-14, 00:48:04,VALID,917.366,VALID,0,VALID,95.3232,VALID,0,VALID,19.9173,VALID,105,VALID,0.605469,
2011-04-14, 00:49:04,VALID,917.323,VALID,0,VALID,95.4299,VALID,0,VALID,19.9173,VALID,105,VALID,0.164063,
2011-04-14, 00:50:04,VALID,917.307,VALID,0,VALID,95.4833,VALID,0,VALID,19.9173,VALID,105,VALID,0.360547,
2011-04-14, 00:51:04,VALID,917.304,VALID,0,VALID,95.4299,VALID,0,VALID,19.8978,VALID,105,VALID,0.233203,
2011-04-14, 00:52:04,VALID,917.287,VALID,0,VALID,95.4147,VALID,0,VALID,19.8783,VALID,105,VALID,0.36875,
2011-04-14, 00:53:04,VALID,917.261,VALID,0,VALID,95.4985,VALID,0,VALID,19.8783,VALID,105,VALID,0.534375,
2011-04-14, 00:54:04,VALID,917.22,VALID,0,VALID,95.5443,VALID,0,VALID,19.8978,VALID,105,VALID,0.241797,
2011-04-14, 00:55:04,VALID,917.23,VALID,0,VALID,95.5595,VALID,0,VALID,19.8978,VALID,105,VALID,0.260938,
2011-04-14, 00:56:04,VALID,917.22,VALID,0,VALID,95.5671,VALID,0,VALID,19.8978,VALID,105,VALID,0.178906,
2011-04-14, 00:57:04,VALID,917.217,VALID,0,VALID,95.6129,VALID,0,VALID,19.9173,VALID,105,VALID,0.075,
2011-04-14, 00:58:04,VALID,917.233,VALID,0,VALID,95.6586,VALID,0,VALID,19.9353,VALID,105,VALID,0,
2011-04-14, 00:59:04,VALID,917.202,VALID,0,VALID,95.7044,VALID,0,VALID,19.9548,VALID,105,VALID,0.201562,
2011-04-14, 01:00:04,VALID,917.197,VALID,0,VALID,95.7044,VALID,0,VALID,19.9953,VALID,105,VALID,0.389844,
2011-04-14, 01:01:04,VALID,917.169,VALID,0,VALID,95.7196,VALID,0,VALID,20.0148,VALID,105,VALID,0.289844,
2011-04-14, 01:02:04,VALID,917.192,VALID,0,VALID,95.6891,VALID,0,VALID,20.0343,VALID,105,VALID,0.375781,
2011-04-14, 01:03:04,VALID,917.176,VALID,0,VALID,95.6434,VALID,0,VALID,20.0538,VALID,105,VALID,0.260156,
2011-04-14, 01:04:04,VALID,917.139,VALID,0,VALID,95.6129,VALID,0,VALID,20.0538,VALID,105,VALID,0.442187,
2011-04-14, 01:05:04,VALID,917.158,VALID,0,VALID,95.5519,VALID,0,VALID,20.0538,VALID,105,VALID,0.45625,
2011-04-14, 01:06:04,VALID,917.172,VALID,0,VALID,95.5671,VALID,0,VALID,20.0733,VALID,105,VALID,0.355078,
2011-04-14, 01:07:04,VALID,917.181,VALID,0,VALID,95.5214,VALID,0,VALID,20.0523,VALID,105,VALID,0.266016,
2011-04-14, 01:08:04,VALID,917.174,VALID,0,VALID,95.4604,VALID,0,VALID,20.0328,VALID,105,VALID,0.288281,
2011-04-14, 01:09:04,VALID,917.16,VALID,0,VALID,95.4757,VALID,0,VALID,20.0538,VALID,105,VALID,0.481641,
2011-04-14, 01:10:04,VALID,917.152,VALID,0,VALID,95.4757,VALID,0,VALID,20.0328,VALID,105,VALID,0.426172,
2011-04-14, 01:11:04,VALID,917.139,VALID,0,VALID,95.5062,VALID,0,VALID,20.0343,VALID,105,VALID,0.622266,
2011-04-14, 01:12:04,VALID,917.111,VALID,0,VALID,95.4985,VALID,0,VALID,20.0343,VALID,105,VALID,0.685547,
2011-04-14, 01:13:04,VALID,917.114,VALID,0,VALID,95.4909,VALID,0,VALID,20.0148,VALID,105,VALID,0.650391,
2011-04-14, 01:14:04,VALID,917.139,VALID,0,VALID,95.4604,VALID,0,VALID,19.9953,VALID,105,VALID,0.633984,
2011-04-14, 01:15:04,VALID,917.13,VALID,0,VALID,95.4833,VALID,0,VALID,19.9743,VALID,105,VALID,0.598828,
2011-04-14, 01:16:04,VALID,917.151,VALID,0,VALID,95.4909,VALID,0,VALID,19.9743,VALID,105,VALID,0.422266,
2011-04-14, 01:17:04,VALID,917.137,VALID,0,VALID,95.4452,VALID,0,VALID,19.9743,VALID,105,VALID,0.483203,
2011-04-14, 01:18:04,VALID,917.133,VALID,0,VALID,95.4909,VALID,0,VALID,19.9953,VALID,105,VALID,0.341797,
2011-04-14, 01:19:04,VALID,917.101,VALID,0,VALID,95.4833,VALID,0,VALID,20.0148,VALID,105,VALID,0.348828,
2011-04-14, 01:20:04,VALID,917.075,VALID,0,VALID,95.468,VALID,0,VALID,19.9953,VALID,105,VALID,0.318359,
2011-04-14, 01:21:04,VALID,917.06,VALID,0,VALID,95.4909,VALID,0,VALID,19.9938,VALID,105,VALID,0.460156,
2011-04-14, 01:22:04,VALID,917.07,VALID,0,VALID,95.4528,VALID,0,VALID,19.9953,VALID,105,VALID,0.313281,
2011-04-14, 01:23:04,VALID,917.024,VALID,0,VALID,95.4299,VALID,0,VALID,19.9743,VALID,105,VALID,0.21875,
2011-04-14, 01:24:04,VALID,917.023,VALID,0,VALID,95.2012,VALID,0,VALID,19.9158,VALID,105,VALID,0.391797,
2011-04-14, 01:25:04,VALID,917.008,VALID,0,VALID,94.7133,VALID,0,VALID,19.7988,VALID,105,VALID,0.947266,
2011-04-14, 01:26:04,VALID,916.969,VALID,0,VALID,94.6905,VALID,0,VALID,19.7208,VALID,105,VALID,0.816016,
2011-04-14, 01:27:04,VALID,916.964,VALID,0,VALID,94.9725,VALID,0,VALID,19.7418,VALID,105,VALID,0.85,
2011-04-14, 01:28:04,VALID,916.899,VALID,0,VALID,95.1402,VALID,0,VALID,19.7223,VALID,105,VALID,0.923437,
2011-04-14, 01:29:04,VALID,916.886,VALID,0,VALID,95.3156,VALID,0,VALID,19.6818,VALID,105,VALID,1.03945,
2011-04-14, 01:30:04,VALID,916.873,VALID,0,VALID,95.6053,VALID,0,VALID,19.7208,VALID,105,VALID,0.976172,
2011-04-14, 01:31:04,VALID,916.836,VALID,0,VALID,95.7044,VALID,0,VALID,19.7208,VALID,105,VALID,0.924609,
2011-04-14, 01:32:04,VALID,916.849,VALID,0,VALID,95.7349,VALID,0,VALID,19.7223,VALID,105,VALID,0.946094,
2011-04-14, 01:33:04,VALID,916.833,VALID,0,VALID,95.7806,VALID,0,VALID,19.7418,VALID,105,VALID,0.742969,
2011-04-14, 01:34:04,VALID,916.841,VALID,0,VALID,95.7577,VALID,0,VALID,19.7223,VALID,105,VALID,0.637109,
2011-04-14, 01:35:04,VALID,916.833,VALID,0,VALID,95.773,VALID,0,VALID,19.7028,VALID,105,VALID,0.755469,
2011-04-14, 01:36:04,VALID,916.83,VALID,0,VALID,95.8111,VALID,0,VALID,19.6833,VALID,105,VALID,0.826563,
2011-04-14, 01:37:04,VALID,916.812,VALID,0,VALID,95.8492,VALID,0,VALID,19.6638,VALID,105,VALID,0.726172,
2011-04-14, 01:38:04,VALID,916.798,VALID,0,VALID,95.8568,VALID,0,VALID,19.6623,VALID,105,VALID,0.623047,
2011-04-14, 01:39:04,VALID,916.762,VALID,0,VALID,95.9559,VALID,0,VALID,19.6428,VALID,105,VALID,0.747656,
2011-04-14, 01:40:04,VALID,916.745,VALID,0,VALID,96.0474,VALID,0,VALID,19.7013,VALID,105,VALID,0.529297,
2011-04-14, 01:41:04,VALID,916.721,VALID,0,VALID,96.0932,VALID,0,VALID,19.7223,VALID,105,VALID,0.485156,
2011-04-14, 01:42:04,VALID,916.704,VALID,0,VALID,96.1008,VALID,0,VALID,19.7403,VALID,105,VALID,0.318359,
2011-04-14, 01:43:04,VALID,916.697,VALID,0,VALID,96.1541,VALID,0,VALID,19.7793,VALID,105,VALID,0.246484,
2011-04-14, 01:44:04,VALID,916.668,VALID,0,VALID,96.1846,VALID,0,VALID,19.8198,VALID,105,VALID,0,
2011-04-14, 01:45:04,VALID,916.679,VALID,0,VALID,96.2228,VALID,0,VALID,19.8393,VALID,105,VALID,0,
2011-04-14, 01:46:04,VALID,916.666,VALID,0,VALID,96.2304,VALID,0,VALID,19.8783,VALID,105,VALID,0.110937,
2011-04-14, 01:47:04,VALID,916.656,VALID,0,VALID,96.1541,VALID,0,VALID,19.8588,VALID,105,VALID,0.252344,
2011-04-14, 01:48:04,VALID,916.665,VALID,0,VALID,96.0703,VALID,0,VALID,19.8198,VALID,105,VALID,0.0398437,
2011-04-14, 01:49:04,VALID,916.632,VALID,0,VALID,96.055,VALID,0,VALID,19.8393,VALID,105,VALID,0.195703,
2011-04-14, 01:50:04,VALID,916.656,VALID,0,VALID,96.0017,VALID,0,VALID,19.8198,VALID,105,VALID,0.458594,
2011-04-14, 01:51:04,VALID,916.661,VALID,0,VALID,95.9254,VALID,0,VALID,19.7793,VALID,105,VALID,0.575781,
2011-04-14, 01:52:04,VALID,916.626,VALID,0,VALID,95.8492,VALID,0,VALID,19.7598,VALID,105,VALID,0.786719,
2011-04-14, 01:53:04,VALID,916.603,VALID,0,VALID,95.773,VALID,0,VALID,19.7613,VALID,105,VALID,0.939062,
2011-04-14, 01:54:04,VALID,916.592,VALID,0,VALID,95.6967,VALID,0,VALID,19.7598,VALID,105,VALID,0.958203,
2011-04-14, 01:55:04,VALID,916.575,VALID,0,VALID,95.7272,VALID,0,VALID,19.7808,VALID,106,VALID,0.721875,
2011-04-14, 01:56:04,VALID,916.555,VALID,0,VALID,95.7577,VALID,0,VALID,19.7808,VALID,105,VALID,0.655859,
2011-04-14, 01:57:04,VALID,916.555,VALID,0,VALID,95.7425,VALID,0,VALID,19.7403,VALID,105,VALID,0.446875,
2011-04-14, 01:58:04,VALID,916.526,VALID,0,VALID,95.7196,VALID,0,VALID,19.7418,VALID,105,VALID,0.422656,
2011-04-14, 01:59:04,VALID,916.507,VALID,0,VALID,95.7501,VALID,0,VALID,19.7418,VALID,105,VALID,0.497656,
2011-04-14, 02:00:04,VALID,916.48,VALID,0,VALID,95.8111,VALID,0,VALID,19.7208,VALID,106,VALID,0.365234,
2011-04-14, 02:01:04,VALID,916.474,VALID,0,VALID,95.8645,VALID,0,VALID,19.7223,VALID,105,VALID,0.533203,
2011-04-14, 02:02:04,VALID,916.491,VALID,0,VALID,95.9102,VALID,0,VALID,19.7418,VALID,105,VALID,0.438281,
2011-04-14, 02:03:04,VALID,916.445,VALID,0,VALID,95.9483,VALID,0,VALID,19.7208,VALID,105,VALID,0.377734,
2011-04-14, 02:04:04,VALID,916.434,VALID,0,VALID,95.9636,VALID,0,VALID,19.7418,VALID,105,VALID,0.552344,
2011-04-14, 02:05:04,VALID,916.388,VALID,0,VALID,95.9483,VALID,0,VALID,19.7013,VALID,105,VALID,0.559766,
2011-04-14, 02:06:04,VALID,916.396,VALID,0,VALID,95.9102,VALID,0,VALID,19.7028,VALID,105,VALID,0.671094,
2011-04-14, 02:07:04,VALID,916.369,VALID,0,VALID,95.9483,VALID,0,VALID,19.6833,VALID,105,VALID,0.754687,
2011-04-14, 02:08:04,VALID,916.313,VALID,0,VALID,95.9788,VALID,0,VALID,19.6833,VALID,105,VALID,0.7625,
2011-04-14, 02:09:04,VALID,916.285,VALID,0,VALID,96.0017,VALID,0,VALID,19.6833,VALID,105,VALID,0.708984,
2011-04-14, 02:10:04,VALID,916.284,VALID,0,VALID,96.0169,VALID,0,VALID,19.6638,VALID,106,VALID,0.449219,
2011-04-14, 02:11:04,VALID,916.29,VALID,0,VALID,96.0093,VALID,0,VALID,19.6638,VALID,105,VALID,0.639453,
2011-04-14, 02:12:04,VALID,916.307,VALID,0,VALID,95.9941,VALID,0,VALID,19.6233,VALID,105,VALID,0.630469,
2011-04-14, 02:13:04,VALID,916.288,VALID,0,VALID,95.9788,VALID,0,VALID,19.6248,VALID,105,VALID,0.704297,
2011-04-14, 02:14:04,VALID,916.302,VALID,0,VALID,95.9941,VALID,0,VALID,19.6248,VALID,105,VALID,0.313281,
2011-04-14, 02:15:04,VALID,916.323,VALID,0,VALID,96.0169,VALID,0,VALID,19.6038,VALID,105,VALID,0.689062,
2011-04-14, 02:16:04,VALID,916.304,VALID,0,VALID,95.9864,VALID,0,VALID,19.6248,VALID,105,VALID,0.706641,
2011-04-14, 02:17:04,VALID,916.287,VALID,0,VALID,95.9331,VALID,0,VALID,19.5858,VALID,105,VALID,0.495313,
2011-04-14, 02:18:04,VALID,916.296,VALID,0,VALID,95.8263,VALID,0,VALID,19.5468,VALID,105,VALID,0.414453,
2011-04-14, 02:19:04,VALID,916.285,VALID,0,VALID,95.9026,VALID,0,VALID,19.5648,VALID,106,VALID,0.702344,
2011-04-14, 02:20:04,VALID,916.29,VALID,0,VALID,95.9636,VALID,0,VALID,19.6053,VALID,106,VALID,0.626562,
2011-04-14, 02:21:04,VALID,916.279,VALID,0,VALID,95.9483,VALID,0,VALID,19.6053,VALID,106,VALID,0.476953,
2011-04-14, 02:22:04,VALID,916.281,VALID,0,VALID,95.9712,VALID,0,VALID,19.6053,VALID,106,VALID,0.707812,
2011-04-14, 02:23:04,VALID,916.242,VALID,0,VALID,95.9941,VALID,0,VALID,19.6053,VALID,106,VALID,0.966406,
2011-04-14, 02:24:04,VALID,916.239,VALID,0,VALID,96.0474,VALID,0,VALID,19.6053,VALID,106,VALID,1.07266,
2011-04-14, 02:25:04,VALID,916.258,VALID,0,VALID,96.0627,VALID,0,VALID,19.6053,VALID,107,VALID,0.951563,
2011-04-14, 02:26:04,VALID,916.257,VALID,0,VALID,96.055,VALID,0,VALID,19.5858,VALID,107,VALID,0.94375,
2011-04-14, 02:27:04,VALID,916.253,VALID,0,VALID,96.0245,VALID,0,VALID,19.5858,VALID,107,VALID,0.778906,
2011-04-14, 02:28:04,VALID,916.278,VALID,0,VALID,96.055,VALID,0,VALID,19.5648,VALID,107,VALID,0.873828,
2011-04-14, 02:29:04,VALID,916.252,VALID,0,VALID,96.0627,VALID,0,VALID,19.5663,VALID,107,VALID,0.994141,
2011-04-14, 02:30:04,VALID,916.266,VALID,0,VALID,96.0932,VALID,0,VALID,19.5468,VALID,107,VALID,0.821875,
2011-04-14, 02:31:04,VALID,916.245,VALID,0,VALID,96.1008,VALID,0,VALID,19.5273,VALID,107,VALID,0.986328,
2011-04-14, 02:32:04,VALID,916.238,VALID,0,VALID,96.1541,VALID,0,VALID,19.5078,VALID,108,VALID,0.956641,
2011-04-14, 02:33:04,VALID,916.26,VALID,0,VALID,96.177,VALID,0,VALID,19.5078,VALID,108,VALID,0.973047,
2011-04-14, 02:34:04,VALID,916.224,VALID,0,VALID,96.2304,VALID,0,VALID,19.5288,VALID,108,VALID,0.828125,
2011-04-14, 02:35:04,VALID,916.261,VALID,0,VALID,96.2609,VALID,0,VALID,19.5078,VALID,108,VALID,0.827734,
2011-04-14, 02:36:04,VALID,916.222,VALID,0,VALID,96.3066,VALID,0,VALID,19.5273,VALID,108,VALID,0.784766,
2011-04-14, 02:37:04,VALID,916.232,VALID,0,VALID,96.299,VALID,0,VALID,19.5273,VALID,108,VALID,0.638672,
2011-04-14, 02:38:04,VALID,916.207,VALID,0,VALID,96.3142,VALID,0,VALID,19.5078,VALID,108,VALID,0.546094,
2011-04-14, 02:39:04,VALID,916.174,VALID,0,VALID,96.2685,VALID,0,VALID,19.5078,VALID,108,VALID,0.465625,
2011-04-14, 02:40:04,VALID,916.141,VALID,0,VALID,96.2761,VALID,0,VALID,19.4898,VALID,108,VALID,0.643359,
2011-04-14, 02:41:04,VALID,916.112,VALID,0,VALID,96.2761,VALID,0,VALID,19.4883,VALID,109,VALID,0.541406,
2011-04-14, 02:42:04,VALID,916.106,VALID,0,VALID,96.2609,VALID,0,VALID,19.4688,VALID,109,VALID,0.720312,
2011-04-14, 02:43:04,VALID,916.101,VALID,0,VALID,96.2456,VALID,0,VALID,19.4898,VALID,109,VALID,0.712109,
2011-04-14, 02:44:04,VALID,916.105,VALID,0,VALID,96.2609,VALID,0,VALID,19.4883,VALID,109,VALID,0.668359,
2011-04-14, 02:45:04,VALID,916.115,VALID,0,VALID,96.2761,VALID,0,VALID,19.4883,VALID,109,VALID,0.65625,
2011-04-14, 02:46:04,VALID,916.133,VALID,0,VALID,96.2685,VALID,0,VALID,19.5078,VALID,109,VALID,0.879687,
2011-04-14, 02:47:04,VALID,916.128,VALID,0,VALID,96.2761,VALID,0,VALID,19.5078,VALID,110,VALID,0.875391,
2011-04-14, 02:48:04,VALID,916.141,VALID,0,VALID,96.2761,VALID,0,VALID,19.5078,VALID,110,VALID,0.291016,
2011-04-14, 02:49:04,VALID,916.135,VALID,0,VALID,96.2456,VALID,0,VALID,19.5078,VALID,141,VALID,0.832031,
2011-04-14, 02:50:04,VALID,916.105,VALID,0,VALID,96.2304,VALID,0,VALID,19.5078,VALID,141,VALID,0.285937,
2011-04-14, 02:51:04,VALID,916.099,VALID,0,VALID,96.2151,VALID,0,VALID,19.4883,VALID,141,VALID,0.225,
2011-04-14, 02:52:04,VALID,916.034,VALID,0,VALID,96.1008,VALID,0,VALID,19.4283,VALID,141,VALID,0.49375,
2011-04-14, 02:53:04,VALID,916.009,VALID,0,VALID,96.0169,VALID,0,VALID,19.3713,VALID,141,VALID,0.557813,
2011-04-14, 02:54:04,VALID,916.012,VALID,0,VALID,95.9483,VALID,0,VALID,19.3128,VALID,141,VALID,0.660156,
2011-04-14, 02:55:04,VALID,915.997,VALID,0,VALID,95.9941,VALID,0,VALID,19.2933,VALID,141,VALID,0.775781,
2011-04-14, 02:56:04,VALID,916.003,VALID,0,VALID,96.0398,VALID,0,VALID,19.2933,VALID,141,VALID,0.567969,
2011-04-14, 02:57:04,VALID,915.965,VALID,0,VALID,96.0703,VALID,0,VALID,19.2753,VALID,141,VALID,0.471094,
2011-04-14, 02:58:04,VALID,915.991,VALID,0,VALID,96.1618,VALID,0,VALID,19.2933,VALID,140,VALID,0.922656,
2011-04-14, 02:59:04,VALID,915.94,VALID,0,VALID,96.1923,VALID,0,VALID,19.2933,VALID,133,VALID,0.391797,
2011-04-14, 03:00:04,VALID,915.921,VALID,0,VALID,96.2228,VALID,0,VALID,19.2933,VALID,132,VALID,0.579687,
2011-04-14, 03:01:04,VALID,915.909,VALID,0,VALID,96.2151,VALID,0,VALID,19.2933,VALID,132,VALID,0.573438,
2011-04-14, 03:02:04,VALID,915.883,VALID,0,VALID,96.1846,VALID,0,VALID,19.2543,VALID,132,VALID,0.664844,
2011-04-14, 03:03:04,VALID,915.863,VALID,0,VALID,96.2075,VALID,0,VALID,19.2348,VALID,132,VALID,0.738672,
2011-04-14, 03:04:04,VALID,915.864,VALID,0,VALID,96.2837,VALID,0,VALID,19.2543,VALID,132,VALID,1.12656,
2011-04-14, 03:05:04,VALID,915.844,VALID,0,VALID,96.3676,VALID,0,VALID,19.2933,VALID,129,VALID,0.961719,
2011-04-14, 03:06:04,VALID,915.823,VALID,0,VALID,96.36,VALID,0,VALID,19.3143,VALID,119,VALID,1.18281,
2011-04-14, 03:07:04,VALID,915.813,VALID,0,VALID,96.3447,VALID,0,VALID,19.2948,VALID,119,VALID,1.08633,
2011-04-14, 03:08:04,VALID,915.839,VALID,0,VALID,96.2075,VALID,0,VALID,19.2153,VALID,119,VALID,0.667578,
2011-04-14, 03:09:04,VALID,915.838,VALID,0,VALID,96.2685,VALID,0,VALID,19.1958,VALID,119,VALID,1.25859,
2011-04-14, 03:10:04,VALID,915.821,VALID,0,VALID,96.2685,VALID,0,VALID,19.2168,VALID,119,VALID,0.804297,
2011-04-14, 03:11:04,VALID,915.836,VALID,0,VALID,96.238,VALID,0,VALID,19.1778,VALID,119,VALID,0.785547,
2011-04-14, 03:12:04,VALID,915.828,VALID,0,VALID,96.1389,VALID,0,VALID,19.1373,VALID,119,VALID,0.505469,
2011-04-14, 03:13:04,VALID,915.806,VALID,0,VALID,96.2075,VALID,0,VALID,19.1388,VALID,119,VALID,0.861328,
2011-04-14, 03:14:04,VALID,915.805,VALID,0,VALID,96.238,VALID,0,VALID,19.1373,VALID,119,VALID,0.301953,
2011-04-14, 03:15:04,VALID,915.826,VALID,0,VALID,96.2075,VALID,0,VALID,19.1178,VALID,119,VALID,0.488281,
2011-04-14, 03:16:04,VALID,915.815,VALID,0,VALID,96.1541,VALID,0,VALID,19.0998,VALID,119,VALID,0.3875,
2011-04-14, 03:17:04,VALID,915.848,VALID,0,VALID,96.1084,VALID,0,VALID,19.0398,VALID,119,VALID,0.432813,
2011-04-14, 03:18:04,VALID,915.82,VALID,0,VALID,96.1084,VALID,0,VALID,19.0413,VALID,119,VALID,0.662891,
2011-04-14, 03:19:04,VALID,915.806,VALID,0,VALID,96.0855,VALID,0,VALID,18.9814,VALID,119,VALID,0.691016,
2011-04-14, 03:20:04,VALID,915.807,VALID,0,VALID,96.1008,VALID,0,VALID,19.0023,VALID,119,VALID,0.74375,
2011-04-14, 03:21:04,VALID,915.782,VALID,0,VALID,96.055,VALID,0,VALID,18.9229,VALID,119,VALID,0.876953,
2011-04-14, 03:22:04,VALID,915.8,VALID,0,VALID,96.1694,VALID,0,VALID,18.9034,VALID,119,VALID,1.10859,
2011-04-14, 03:23:04,VALID,915.777,VALID,0,VALID,96.2151,VALID,0,VALID,18.8629,VALID,119,VALID,1.2043,
2011-04-14, 03:24:04,VALID,915.797,VALID,0,VALID,96.3371,VALID,0,VALID,18.8629,VALID,119,VALID,1.21992,
2011-04-14, 03:25:04,VALID,915.825,VALID,0,VALID,96.3981,VALID,0,VALID,18.8434,VALID,119,VALID,0.948828,
2011-04-14, 03:26:04,VALID,915.896,VALID,0,VALID,96.3981,VALID,0,VALID,18.8045,VALID,119,VALID,0.872656,
2011-04-14, 03:27:04,VALID,915.909,VALID,0,VALID,96.4896,VALID,0,VALID,18.8254,VALID,119,VALID,0.800781,
2011-04-14, 03:28:04,VALID,915.92,VALID,0,VALID,96.5124,VALID,0.107441,VALID,18.785,VALID,119,VALID,0.536719,
2011-04-14, 03:29:04,VALID,915.929,VALID,0,VALID,96.6039,VALID,0,VALID,18.8254,VALID,119,VALID,0.591406,
2011-04-14, 03:30:04,VALID,915.926,VALID,0,VALID,96.6725,VALID,0,VALID,18.8434,VALID,119,VALID,0.791797,
2011-04-14, 03:31:04,VALID,915.933,VALID,0,VALID,96.703,VALID,0,VALID,18.8629,VALID,119,VALID,0.742578,
2011-04-14, 03:32:04,VALID,915.88,VALID,0,VALID,96.7259,VALID,0,VALID,18.8644,VALID,119,VALID,0.65,
2011-04-14, 03:33:04,VALID,915.881,VALID,0,VALID,96.5963,VALID,0,VALID,18.8059,VALID,119,VALID,0.586328,
2011-04-14, 03:34:04,VALID,915.859,VALID,0,VALID,96.7259,VALID,0,VALID,18.8059,VALID,119,VALID,0.8625,
2011-04-14, 03:35:04,VALID,915.849,VALID,0,VALID,96.764,VALID,0,VALID,18.8045,VALID,119,VALID,0.698828,
2011-04-14, 03:36:04,VALID,915.869,VALID,0,VALID,96.7716,VALID,0.107441,VALID,18.8059,VALID,119,VALID,0.684375,
2011-04-14, 03:37:04,VALID,915.853,VALID,0,VALID,96.7945,VALID,0,VALID,18.7878,VALID,119,VALID,0.600391,
2011-04-14, 03:38:04,VALID,915.864,VALID,0,VALID,96.8631,VALID,0,VALID,18.8059,VALID,119,VALID,0.766406,
2011-04-14, 03:39:04,VALID,915.875,VALID,0,VALID,96.8784,VALID,0,VALID,18.8268,VALID,119,VALID,0.815625,
2011-04-14, 03:40:04,VALID,915.899,VALID,0,VALID,96.8555,VALID,0,VALID,18.8268,VALID,119,VALID,0.545313,
2011-04-14, 03:41:04,VALID,915.9,VALID,0,VALID,96.8707,VALID,0,VALID,18.8268,VALID,119,VALID,0.522266,
2011-04-14, 03:42:04,VALID,915.881,VALID,0,VALID,96.8784,VALID,0,VALID,18.8059,VALID,119,VALID,0.680078,
2011-04-14, 03:43:04,VALID,915.874,VALID,0,VALID,96.9089,VALID,0,VALID,18.8059,VALID,119,VALID,0.848047,
2011-04-14, 03:44:04,VALID,915.865,VALID,0,VALID,96.9394,VALID,0,VALID,18.8463,VALID,119,VALID,0.870703,